Weather History for Mmabatho, South Africa

Change the Weather History Date:

Friday, November 15, 2013

  Actual Average Record
Temperature  
Mean Temperature 82 °F -  
Max Temperature 95 °F - - ()
Min Temperature 68 °F - - ()
Cooling Degree Days 16    
Growing Degree Days 32 (Base 50)    
Moisture  
Dew Point 57 °F    
Average Humidity 52    
Maximum Humidity 83    
Minimum Humidity 14    
Precipitation  
Precipitation 0.03 in - - ()
Sea Level Pressure  
Sea Level Pressure 30.00 in    
Wind  
Wind Speed 11 mph ()    
Max Wind Speed 20 mph    
Max Gust Speed 26 mph    
Visibility 10.0 miles    
Events Rain , Thunderstorm    
T = Trace of Precipitation, MM = Missing Value Source: Averaged Metar Reports

Daily Weather History Graph

Daily Weather History Graph

Search for Another Location

Airport:

Trip Planner

Search our weather history database for the weather conditions in past years. The results will help you decide how hot, cold, wet, or windy it might be!

Date:

Astronomy

Nov. 15, 2013 Rise Set
Actual Time 5:21 AM SAST 6:43 PM SAST
Civil Twilight 4:56 AM SAST 7:08 PM SAST
Nautical Twilight 4:26 AM SAST 7:38 PM SAST
Astronomical Twilight 3:56 AM SAST 8:09 PM SAST
Moon 4:53 PM SAST (11/15) 3:43 AM SAST (11/15)
Length of Visible Light 14h 12m
Length of Day
13h 22m
Waxing Gibbous, 95% of the Moon is Illuminated
Nov 15
Waxing Gibbous
Nov 17
Full
Nov 25
Last Quarter
Dec 3
New
Dec 9
First Quarter

Hourly Weather History & Observations

Time (SAST) Temp. Heat Index Dew Point Humidity Pressure Visibility Wind Dir Wind Speed Gust Speed Precip Events Conditions
12:00 AM 75.2 °F - 55.4 °F 50% 30.04 in - SSE 16.1 mph - N/A   Unknown
1:00 AM 71.6 °F - 55.4 °F 57% 30.04 in - East 17.3 mph - N/A   Unknown
2:00 AM 72 °F - 56 °F 47%  in - East 19.6 mph - -  
2:00 AM 71.6 °F - 55.4 °F 57% 30.01 in - East 18.4 mph - N/A   Unknown
3:00 AM 71.6 °F - 53.6 °F 53% 30.01 in - East 12.7 mph - N/A   Unknown
4:00 AM 69.8 °F - 57.2 °F 64% 29.98 in - East 16.1 mph - N/A   Unknown
5:00 AM 71 °F - 58 °F 54%  in 12 mi East 11.5 mph - - Rain Light Drizzle
5:00 AM 69.8 °F - 57.2 °F 64% 29.98 in 6.2 mi East 10.4 mph - N/A   Light Drizzle
6:00 AM 68.0 °F - 59.0 °F 73% 29.98 in - ENE 15.0 mph - N/A   Clear
7:00 AM 68.0 °F - 60.8 °F 78% 30.04 in - NNE 4.6 mph - N/A   Clear
8:00 AM 72 °F - 63 °F 65%  in 12 mi South 3.5 mph - -   Mostly Cloudy
8:00 AM 71.6 °F - 62.6 °F 73% 30.06 in - South 3.5 mph - N/A   Clear
9:00 AM 73.4 °F - 59.0 °F 61% 30.06 in - South 4.6 mph - N/A   Clear
10:00 AM 77.0 °F - 57.2 °F 50% 30.04 in - ESE 3.5 mph - N/A   Clear
11:00 AM 81 °F - 56 °F 32%  in 19 mi ENE 4.6 mph - -   Partly Cloudy
11:00 AM 80.6 °F 80.5 °F 55.4 °F 42% 30.04 in - ENE 3.5 mph - N/A   Clear
12:00 PM 84.2 °F - 51.8 °F 33% 29.98 in - ENE 5.8 mph - N/A   Clear
1:00 PM 89.6 °F - 50.0 °F 26% 29.95 in 6.2 mi NE 16.1 mph - N/A   Scattered Clouds
2:00 PM 92 °F - 48 °F 14%  in 19 mi North 15.0 mph - -   Scattered Clouds
2:00 PM 91.4 °F - 48.2 °F 23% 29.92 in 6.2 mi North 15.0 mph 26.5 mph N/A   Scattered Clouds
3:00 PM 91.4 °F - 46.4 °F 21% 29.89 in 6.2 mi NNW 13.8 mph - N/A   Mostly Cloudy
4:00 PM 84.2 °F 83.0 °F 55.4 °F 37% 29.92 in 3.1 mi NW 15.0 mph - N/A   Mostly Cloudy
5:00 PM 79 °F - 58 °F 38%  in 16 mi SW 15.0 mph - -   Scattered Clouds
5:00 PM 78.8 °F - 57.2 °F 47% 29.92 in 6.2 mi SW 13.8 mph - N/A   Mostly Cloudy
6:00 PM 77.0 °F - 57.2 °F 50% 29.95 in 6.2 mi SW 13.8 mph - N/A   Mostly Cloudy
7:00 PM 77.0 °F - 57.2 °F 50% 29.98 in 6.2 mi SSE 8.1 mph - N/A   Scattered Clouds
8:00 PM 75 °F - 60 °F 51%  in 19 mi East 8.1 mph - - Thunderstorm Thunderstorm
8:00 PM 75.2 °F - 59.0 °F 57% 30.04 in 6.2 mi East 8.1 mph - N/A Thunderstorm Thunderstorm
9:00 PM 73.4 °F - 60.8 °F 65% 30.04 in - ENE 13.8 mph - N/A   Unknown
10:00 PM 69.8 °F - 62.6 °F 78% 30.06 in - ENE 6.9 mph - N/A   Unknown
11:00 PM 70 °F - 66 °F 83%  in - SE 6.9 mph - -  
11:00 PM 69.8 °F - 64.4 °F 83% 30.04 in - SE 5.8 mph - N/A   Unknown